Location: Cicognara
(44.9500°N, 10.4667°E)
Time: 05:36:28
(UTC+00:00)

FALCON 9 DEB - Visible Passes

Search period start: 18 October 2021 00:00
Search period end: 28 October 2021 00:00
Orbit: 350 x 362 km, 53.0° (Epoch: 17 October)

Date Brightness Start Highest point End Pass type
(mag) Time Alt. Az. Time Alt. Az. Time Alt. Az.
24 Oct 4.6 17:40:25 10° S 17:42:01 19° SSE 17:42:01 19° SSE visible
25 Oct 3.9 18:06:41 10° SW 18:08:39 37° SSW 18:08:39 37° SSW visible
26 Oct 4.2 16:59:14 10° S 17:01:37 22° SE 17:03:26 14° E visible
26 Oct 5.4 18:33:51 10° WSW 18:35:04 21° W 18:35:04 21° W visible
27 Oct 2.6 17:25:32 10° SW 17:28:28 73° SE 17:29:42 31° ENE visible
